Home > Weather > Ganja > Past weeks

Flag for Azerbaijan Weather for the Past 2 Weeks in Ganja, Azerbaijan

Now
34 °F

Fog.


Feels Like: 34 °F
Forecast: 28 / 50 °F
Wind: No wind

Location: Gyanca Airport

Current Time: Feb 11, 2016 at 5:10:21 AM

Latest Report: Feb 11, 2016 at 4:00 AM


Visibility: 3 mi

Pressure: 30.30 "Hg

Humidity: 100%

Dew point: 34 °F

Location of GanjaLocation

Historic Weather in Ganja — Graph

°F

Ganja Temperature Yesterday

Maximum temperature yesterday: 37 °F (at 12:00 PM)
Minimum temperature yesterday: 34 °F (at 3:00 AM)
Average temperature yesterday: 35 °F

High & Low Weather Summary for the Past Weeks

 TemperatureHumidityPressure
High68 °F (Feb 6, 4:00 PM)100% (Jan 28, 5:00 AM)30.54 "Hg (Jan 28, 5:00 AM)
Low18 °F (Jan 28, 7:30 AM)16% (Feb 6, 4:00 PM)29.74 "Hg (Feb 6, 5:00 PM)
Average40 °F66%30.21 "Hg
* Reported Jan 27 3:00 AM — Feb 11 3:00 AM, Ganja, Weather by CustomWeather, © 2016

Note: Actual official high and low records may vary slightly from our data, if they occured in-between our weather recording intervals... More about our weather records

Advertising

Ganja Weather History for the Previous 24 Hours

 ConditionsComfort  
Time TempWeatherWind HumidityBarometerVisibility
3:00 AM
Thu, Feb 11
34 °FFog.No wind93%30.33 "Hg3 mi
1:30 AM34 °FOvercast.No wind100%30.36 "Hg5 mi
1:00 AM34 °FOvercast.2 mph100%30.36 "Hg4 mi
12:30 AM34 °FOvercast.No wind93%30.36 "Hg4 mi
12:00 AM34 °FOvercast.No wind93%30.39 "Hg4 mi
11:30 PM
Wed, Feb 10
34 °FOvercast.No wind100%30.39 "Hg4 mi
11:00 PM34 °FOvercast.No wind100%30.39 "Hg4 mi
10:30 PM34 °FOvercast.No wind100%30.39 "HgN/A
9:30 PM34 °FOvercast.3 mph93%30.39 "HgN/A
9:00 PM36 °FOvercast.2 mph87%30.39 "HgN/A
8:30 PM36 °FOvercast.3 mph87%30.42 "HgN/A
7:30 PM36 °FOvercast.5 mph87%30.42 "HgN/A
7:00 PM36 °FOvercast.5 mph87%30.42 "HgN/A
6:30 PM36 °FOvercast.5 mph87%30.42 "HgN/A
6:00 PM36 °FOvercast.7 mph81%30.42 "HgN/A
5:30 PM36 °FOvercast.7 mph81%30.42 "HgN/A
5:00 PM36 °FOvercast.8 mph81%30.42 "HgN/A
4:30 PM36 °FOvercast.7 mph81%30.42 "HgN/A
4:00 PM37 °FOvercast.8 mph75%30.42 "HgN/A
3:30 PM37 °FOvercast.7 mph75%30.42 "HgN/A
3:00 PM37 °FOvercast.8 mph81%30.42 "HgN/A
2:30 PM37 °FOvercast.8 mph75%30.42 "HgN/A
2:00 PM37 °FOvercast.8 mph75%30.42 "HgN/A
1:30 PM37 °FOvercast.8 mph81%30.45 "HgN/A
1:00 PM37 °FOvercast.8 mph81%30.45 "HgN/A
12:30 PM37 °FOvercast.8 mph75%30.45 "HgN/A
12:00 PM37 °FOvercast.7 mph75%30.48 "HgN/A
11:30 AM36 °FOvercast.5 mph87%30.48 "HgN/A
11:00 AM36 °FOvercast.5 mph87%30.48 "HgN/A
10:30 AM36 °FOvercast.3 mph65%30.48 "HgN/A
10:00 AM36 °FOvercast.5 mph70%30.48 "HgN/A
9:30 AM36 °FOvercast.3 mph70%30.48 "HgN/A
9:00 AM36 °FOvercast.6 mph70%30.48 "HgN/A
8:30 AM36 °FOvercast.5 mph70%30.48 "HgN/A
8:00 AM34 °FOvercast.5 mph81%30.45 "HgN/A
7:30 AM36 °FOvercast.5 mph75%30.45 "HgN/A
7:00 AM36 °FOvercast.No wind75%30.45 "Hg4 mi
6:30 AM36 °FOvercast.No wind87%30.45 "Hg4 mi
6:00 AM34 °FOvercast.No wind100%30.45 "Hg4 mi
5:30 AM34 °FOvercast.No wind93%30.45 "Hg4 mi
5:00 AM34 °FOvercast.No wind93%30.45 "Hg4 mi
Weather by CustomWeather, © 2016

See weather overviewHow to use our weather pages